Weather History for Dumas, TX

Change the Weather History Date:

Thursday, February 7, 2013

  Actual Average (KBGD) Record (KBGD)
Temperature  
Mean Temperature 42 °F 41 °F  
Max Temperature 51 °F 54 °F 78 °F (1963)
Min Temperature 30 °F 28 °F 2 °F (1989)
Degree Days  
Heating Degree Days 24 24  
Month to date heating degree days 171  
Since 1 July heating degree days 2523  
Cooling Degree Days 0 0  
Month to date cooling degree days 0  
Year to date cooling degree days 0  
Moisture  
Dew Point 23 °F    
Average Humidity 46    
Maximum Humidity 69    
Minimum Humidity 32    
Precipitation  
Precipitation 0.00 in 0.02 in 1.12 in (1986)
Month to date precipitation 0.17  
Year to date precipitation 0.76  
Snow  
Snow 0.00 in - 14.00 in (1986)
Month to date snowfall  
Since 1 July snowfall  
Snow Depth -    
Sea Level Pressure  
Sea Level Pressure 30.06 in    
Wind  
Wind Speed 20 mph (North)    
Max Wind Speed 31 mph    
Max Gust Speed 39 mph    
Visibility 10 miles    
Events      
T = Trace of Precipitation, MM = Missing Value Source: NWS Daily Summary

Daily Weather History Graph

Daily Weather History Graph

Search for Another Location

Airport:

Trip Planner

Search our weather history database for the weather conditions in past years. The results will help you decide how hot, cold, wet, or windy it might be!

Date:

Astronomy

Feb. 07, 2013 Rise Set
Actual Time 7:42 AM CST 6:21 PM CST
Civil Twilight 7:16 AM CST 6:48 PM CST
Nautical Twilight 6:46 AM CST 7:18 PM CST
Astronomical Twilight 6:16 AM CST 7:48 PM CST
Moon 5:21 AM CST (2/7) 3:51 PM CST (2/7)
Length of Visible Light 11h 32m
Length of Day
10h 38m
Waning Crescent, 9% of the Moon is Illuminated
Feb 7
Waning Crescent
Feb 10
New
Feb 17
First Quarter
Feb 25
Full
Mar 4
Last Quarter

Hourly Weather History & Observations

Time (CST) Temp. Windchill Dew Point Humidity Pressure Visibility Wind Dir Wind Speed Gust Speed Precip Events Conditions
12:15 AM 41.0 °F 32.5 °F 19.4 °F 42% 29.78 in 10.0 mi NNW 17.3 mph - N/A   Clear
12:35 AM 42.8 °F 33.8 °F 21.2 °F 42% 29.78 in 10.0 mi NNW 21.9 mph - N/A   Clear
12:55 AM 42.8 °F 33.8 °F 23.0 °F 46% 29.79 in 10.0 mi NNW 21.9 mph - N/A   Clear
1:15 AM 44.6 °F 35.7 °F 26.6 °F 49% 29.79 in 10.0 mi NNW 24.2 mph - N/A   Clear
1:35 AM 44.6 °F 35.9 °F 24.8 °F 46% 29.81 in 10.0 mi NNW 23.0 mph - N/A   Clear
1:55 AM 44.6 °F 35.7 °F 23.0 °F 43% 29.82 in 10.0 mi NNW 24.2 mph 28.8 mph N/A   Clear
2:15 AM 42.8 °F 33.5 °F 23.0 °F 46% 29.83 in 10.0 mi NNW 23.0 mph 28.8 mph N/A   Clear
2:35 AM 42.8 °F 33.5 °F 21.2 °F 42% 29.84 in 10.0 mi NNW 23.0 mph 31.1 mph N/A   Clear
2:55 AM 42.8 °F 33.1 °F 21.2 °F 42% 29.86 in 10.0 mi NNW 25.3 mph 29.9 mph N/A   Clear
3:15 AM 42.8 °F 33.3 °F 21.2 °F 42% 29.87 in 10.0 mi NNW 24.2 mph 29.9 mph N/A   Clear
3:35 AM 42.8 °F 32.9 °F 21.2 °F 42% 29.88 in 10.0 mi NNW 26.5 mph 32.2 mph N/A   Clear
3:55 AM 42.8 °F 33.1 °F 21.2 °F 42% 29.89 in 10.0 mi North 25.3 mph 32.2 mph N/A   Clear
4:15 AM 42.8 °F 32.9 °F 19.4 °F 39% 29.90 in 10.0 mi NNW 26.5 mph 35.7 mph N/A   Clear
4:35 AM 42.8 °F 32.7 °F 21.2 °F 42% 29.91 in 10.0 mi NNW 27.6 mph 34.5 mph N/A   Clear
4:55 AM 42.8 °F 32.5 °F 23.0 °F 46% 29.91 in 10.0 mi North 28.8 mph 36.8 mph N/A   Clear
5:15 AM 42.8 °F 32.9 °F 23.0 °F 46% 29.93 in 10.0 mi North 26.5 mph 38.0 mph N/A   Scattered Clouds
5:35 AM 41.0 °F 29.8 °F 23.0 °F 49% 29.93 in 10.0 mi North 29.9 mph 35.7 mph N/A   Clear
5:55 AM 41.0 °F 30.5 °F 23.0 °F 49% 29.95 in 10.0 mi NNW 26.5 mph 35.7 mph N/A   Clear
6:15 AM 41.0 °F 31.1 °F 23.0 °F 49% 29.97 in 10.0 mi NNW 23.0 mph 27.6 mph N/A   Clear
6:35 AM 39.2 °F 28.7 °F 24.8 °F 56% 29.97 in 10.0 mi NNW 23.0 mph - N/A   Clear
6:55 AM 39.2 °F 28.5 °F 24.8 °F 56% 29.98 in 10.0 mi NNW 24.2 mph 32.2 mph N/A   Clear
7:15 AM 37.4 °F 27.5 °F 24.8 °F 60% 30.00 in 10.0 mi NNW 18.4 mph - N/A   Clear
7:35 AM 37.4 °F 27.2 °F 24.8 °F 60% 30.02 in 10.0 mi North 19.6 mph 26.5 mph N/A   Clear
7:55 AM 37.4 °F 26.6 °F 24.8 °F 60% 30.03 in 10.0 mi North 21.9 mph 28.8 mph N/A   Clear
8:15 AM 39.2 °F 28.5 °F 26.6 °F 61% 30.05 in 10.0 mi North 24.2 mph 29.9 mph N/A   Clear
8:35 AM 39.2 °F 28.0 °F 26.6 °F 61% 30.07 in 10.0 mi North 26.5 mph 32.2 mph N/A   Clear
8:55 AM 39.2 °F 27.2 °F 24.8 °F 56% 30.07 in 10.0 mi North 31.1 mph 36.8 mph N/A   Clear
9:15 AM 37.4 °F 25.6 °F 23.0 °F 56% 30.08 in 10.0 mi North 26.5 mph 38.0 mph N/A   Clear
9:35 AM 41.0 °F 30.0 °F 23.0 °F 49% 30.10 in 10.0 mi North 28.8 mph 39.1 mph N/A   Clear
9:55 AM 41.0 °F 31.1 °F 23.0 °F 49% 30.11 in 10.0 mi North 23.0 mph 35.7 mph N/A   Clear
10:15 AM 42.8 °F 33.1 °F 23.0 °F 46% 30.11 in 10.0 mi North 25.3 mph 33.4 mph N/A   Clear
10:35 AM 42.8 °F 33.1 °F 23.0 °F 46% 30.12 in 10.0 mi North 25.3 mph 35.7 mph N/A   Scattered Clouds
10:55 AM 44.6 °F 36.1 °F 21.2 °F 39% 30.13 in 10.0 mi NNE 21.9 mph 33.4 mph N/A   Scattered Clouds
11:15 AM 44.6 °F 35.7 °F 23.0 °F 43% 30.14 in 10.0 mi NNE 24.2 mph 34.5 mph N/A   Scattered Clouds
11:35 AM 46.4 °F 37.9 °F 21.2 °F 37% 30.13 in 10.0 mi North 25.3 mph 34.5 mph N/A   Clear
11:55 AM 46.4 °F 37.7 °F 21.2 °F 37% 30.13 in 7.0 mi North 26.5 mph 32.2 mph N/A   Scattered Clouds
12:15 PM 48.2 °F - 23.0 °F 37% 30.13 in 10.0 mi NNE 23.0 mph 32.2 mph N/A   Clear
12:35 PM 50.0 °F - 23.0 °F 35% 30.14 in 10.0 mi NNE 23.0 mph 28.8 mph N/A   Clear
12:55 PM 50.0 °F - 23.0 °F 35% 30.13 in 10.0 mi NNE 21.9 mph 32.2 mph N/A   Clear
1:15 PM 50.0 °F - 23.0 °F 35% 30.12 in 10.0 mi North 23.0 mph 29.9 mph N/A   Clear
1:35 PM 50.0 °F - 23.0 °F 35% 30.12 in 10.0 mi NNE 20.7 mph 27.6 mph N/A   Clear
1:55 PM 50.0 °F - 23.0 °F 35% 30.12 in 10.0 mi NNE 17.3 mph 26.5 mph N/A   Clear
2:15 PM 51.8 °F - 23.0 °F 33% 30.12 in 10.0 mi North 18.4 mph 27.6 mph N/A   Clear
2:35 PM 51.8 °F - 23.0 °F 33% 30.12 in 10.0 mi NNE 18.4 mph 26.5 mph N/A   Clear
2:55 PM 51.8 °F - 23.0 °F 33% 30.12 in 10.0 mi NNE 16.1 mph 23.0 mph N/A   Clear
3:15 PM 51.8 °F - 23.0 °F 33% 30.12 in 10.0 mi North 18.4 mph 24.2 mph N/A   Clear
3:35 PM 51.8 °F - 23.0 °F 33% 30.12 in 10.0 mi NNE 11.5 mph - N/A   Clear
3:55 PM 51.8 °F - 23.0 °F 33% 30.12 in 10.0 mi North 15.0 mph 23.0 mph N/A   Clear
4:15 PM 51.8 °F - 23.0 °F 33% 30.12 in 10.0 mi NNE 15.0 mph 20.7 mph N/A   Clear
4:35 PM 50.0 °F - 23.0 °F 35% 30.13 in 10.0 mi North 12.7 mph 19.6 mph N/A   Clear
4:55 PM 50.0 °F - 23.0 °F 35% 30.14 in 10.0 mi NNE 11.5 mph 17.3 mph N/A   Scattered Clouds
5:35 PM 50.0 °F - 21.2 °F 32% 30.15 in 10.0 mi NNE 9.2 mph - N/A   Clear
5:55 PM 46.4 °F 42.4 °F 23.0 °F 40% 30.15 in 10.0 mi North 8.1 mph - N/A   Clear
6:15 PM 44.6 °F 42.2 °F 23.0 °F 43% 30.16 in 10.0 mi North 4.6 mph - N/A   Clear
6:35 PM 42.8 °F 38.6 °F 23.0 °F 46% 30.17 in 10.0 mi NNE 6.9 mph - N/A   Clear
6:55 PM 42.8 °F 40.1 °F 23.0 °F 46% 30.17 in 10.0 mi NNE 4.6 mph - N/A   Scattered Clouds
7:15 PM 41.0 °F - 23.0 °F 49% 30.18 in 10.0 mi Calm Calm - N/A   Clear
7:35 PM 41.0 °F - 23.0 °F 49% 30.18 in 10.0 mi Calm Calm - N/A   Clear
7:55 PM 41.0 °F - 23.0 °F 49% 30.19 in 10.0 mi Calm Calm - N/A   Clear
8:15 PM 37.4 °F - 21.2 °F 52% 30.19 in 10.0 mi Calm Calm - N/A   Clear
8:35 PM 35.6 °F - 21.2 °F 56% 30.20 in 10.0 mi Calm Calm - N/A   Clear
8:55 PM 37.4 °F - 23.0 °F 56% 30.20 in 10.0 mi Calm Calm - N/A   Clear
9:15 PM 35.6 °F - 21.2 °F 56% 30.20 in 10.0 mi Calm Calm - N/A   Clear
9:35 PM 35.6 °F - 21.2 °F 56% 30.21 in 10.0 mi Calm Calm - N/A   Clear
9:55 PM 33.8 °F - 21.2 °F 60% 30.20 in 10.0 mi Calm Calm - N/A   Clear
10:15 PM 35.6 °F 30.7 °F 23.0 °F 60% 30.21 in 10.0 mi ESE 5.8 mph - N/A   Clear
10:35 PM 33.8 °F 28.6 °F 21.2 °F 60% 30.21 in 10.0 mi ESE 5.8 mph - N/A   Clear
10:55 PM 35.6 °F 30.7 °F 23.0 °F 60% 30.21 in 10.0 mi ESE 5.8 mph - N/A   Clear
11:15 PM 32.0 °F 26.4 °F 19.4 °F 60% 30.21 in 10.0 mi SE 5.8 mph - N/A   Clear
11:35 PM 32.0 °F 24.8 °F 21.2 °F 64% 30.21 in 10.0 mi South 8.1 mph - N/A   Clear
11:55 PM 30.2 °F 22.6 °F 21.2 °F 69% 30.22 in 10.0 mi South 8.1 mph - N/A   Clear